Meteo orario Abla

Oggi, 7 Marzo, Domenica

Tempo Temperatura Precipitazioni Vento Pressione Umidità
00:00 -16°C° 0 mm 2 m/s 749 mm Hg 96%
01:00 -16°C° 0 mm 2 m/s 748 mm Hg 97%
02:00 -17°C° 0 mm 2 m/s 748 mm Hg 97%
03:00 -17°C° 0 mm 2 m/s 748 mm Hg 97%
04:00 -18°C° 0 mm 2 m/s 748 mm Hg 98%
05:00 -19°C° 0 mm 2 m/s 748 mm Hg 98%
06:00 -19°C° 0 mm 2 m/s 747 mm Hg 99%
07:00 -18°C° 0 mm 2 m/s 748 mm Hg 97%
08:00 -17°C° 0 mm 2 m/s 748 mm Hg 96%
09:00 -16°C° 0 mm 2 m/s 748 mm Hg 95%
10:00 -15°C° 0 mm 2 m/s 747 mm Hg 94%
11:00 -14°C° 0 mm 3 m/s 747 mm Hg 93%
12:00 -13°C° 0 mm 3 m/s 747 mm Hg 93%
13:00 -13°C° 0 mm 3 m/s 746 mm Hg 92%
14:00 -12°C° 0 mm 4 m/s 745 mm Hg 92%
15:00 -12°C° 0 mm 4 m/s 745 mm Hg 91%
16:00 -14°C° 0 mm 4 m/s 744 mm Hg 92%
17:00 -14°C° 0 mm 5 m/s 744 mm Hg 92%
18:00 -14°C° 0 mm 5 m/s 743 mm Hg 92%
19:00 -14°C° 0.2 mm 5 m/s 742 mm Hg 93%
20:00 -14°C° 0.2 mm 6 m/s 741 mm Hg 93%
21:00 -13°C° 0.2 mm 7 m/s 741 mm Hg 93%
22:00 -13°C° 0.4 mm 7 m/s 740 mm Hg 93%
23:00 -12°C° 0.4 mm 7 m/s 739 mm Hg 93%

Domani, 8 Marzo, Lunedi

Tempo Temperatura Precipitazioni Vento Pressione Umidità
00:00 -12°C° 0.4 mm 7 m/s 737 mm Hg 93%
01:00 -12°C° 0.3 mm 7 m/s 737 mm Hg 94%
02:00 -10°C° 0.3 mm 6 m/s 736 mm Hg 94%
03:00 -10°C° 0.3 mm 6 m/s 736 mm Hg 94%
04:00 -9°C° 0.5 mm 6 m/s 735 mm Hg 94%
05:00 -8°C° 0.5 mm 5 m/s 735 mm Hg 94%
06:00 -8°C° 0.5 mm 5 m/s 734 mm Hg 94%
07:00 -10°C° 0.1 mm 5 m/s 735 mm Hg 90%
08:00 -11°C° 0.1 mm 5 m/s 736 mm Hg 86%
09:00 -12°C° 0.1 mm 5 m/s 736 mm Hg 82%
10:00 -11°C° 0 mm 5 m/s 737 mm Hg 82%
11:00 -11°C° 0 mm 5 m/s 737 mm Hg 82%
12:00 -10°C° 0 mm 6 m/s 738 mm Hg 81%
13:00 -10°C° 0 mm 5 m/s 738 mm Hg 83%
14:00 -10°C° 0 mm 5 m/s 739 mm Hg 85%
15:00 -8°C° 0 mm 4 m/s 739 mm Hg 87%
16:00 -8°C° 0 mm 3 m/s 739 mm Hg 89%
17:00 -9°C° 0 mm 3 m/s 739 mm Hg 92%
18:00 -9°C° 0 mm 2 m/s 739 mm Hg 95%
19:00 -10°C° 0 mm 2 m/s 739 mm Hg 95%
20:00 -9°C° 0 mm 1 m/s 739 mm Hg 96%
21:00 -10°C° 0 mm 1 m/s 739 mm Hg 96%
22:00 -11°C° 0 mm 1 m/s 739 mm Hg 96%
23:00 -11°C° 0 mm 1 m/s 739 mm Hg 96%

Dopodomani, 9 Marzo, Martedi

Tempo Temperatura Precipitazioni Vento Pressione Umidità
00:00 -12°C° 0 mm 1 m/s 739 mm Hg 96%
01:00 -12°C° 0 mm 1 m/s 740 mm Hg 96%
02:00 -15°C° 0 mm 2 m/s 740 mm Hg 95%
03:00 -16°C° 0 mm 2 m/s 741 mm Hg 95%
04:00 -17°C° 0 mm 3 m/s 741 mm Hg 96%
05:00 -18°C° 0 mm 3 m/s 742 mm Hg 97%
06:00 -19°C° 0 mm 3 m/s 742 mm Hg 98%
07:00 -19°C° 0 mm 3 m/s 743 mm Hg 97%
08:00 -18°C° 0 mm 3 m/s 744 mm Hg 96%
09:00 -17°C° 0 mm 3 m/s 744 mm Hg 95%
10:00 -17°C° 0 mm 3 m/s 745 mm Hg 93%
11:00 -16°C° 0 mm 3 m/s 745 mm Hg 92%
12:00 -15°C° 0 mm 3 m/s 745 mm Hg 91%
13:00 -14°C° 0 mm 3 m/s 746 mm Hg 90%
14:00 -14°C° 0 mm 3 m/s 746 mm Hg 89%
15:00 -15°C° 0 mm 4 m/s 746 mm Hg 88%
16:00 -15°C° 0 mm 3 m/s 747 mm Hg 90%
17:00 -16°C° 0 mm 3 m/s 747 mm Hg 92%
18:00 -17°C° 0 mm 3 m/s 747 mm Hg 95%
19:00 -18°C° 0 mm 3 m/s 748 mm Hg 95%
20:00 -19°C° 0 mm 3 m/s 748 mm Hg 96%
21:00 -21°C° 0 mm 3 m/s 748 mm Hg 97%
22:00 -22°C° 0 mm 3 m/s 749 mm Hg 97%
23:00 -23°C° 0 mm 3 m/s 749 mm Hg 98%

10 Marzo, Mercoledi

Tempo Temperatura Precipitazioni Vento Pressione Umidità
00:00 -24°C° 0 mm 3 m/s 749 mm Hg 99%
01:00 -24°C° 0 mm 3 m/s 749 mm Hg 98%
02:00 -25°C° 0 mm 3 m/s 749 mm Hg 98%
03:00 -26°C° 0 mm 3 m/s 750 mm Hg 98%
04:00 -26°C° 0 mm 3 m/s 750 mm Hg 98%
05:00 -27°C° 0 mm 3 m/s 750 mm Hg 98%
06:00 -27°C° 0 mm 3 m/s 750 mm Hg 98%
07:00 -27°C° 0 mm 3 m/s 751 mm Hg 97%
08:00 -27°C° 0 mm 4 m/s 751 mm Hg 96%
09:00 -27°C° 0 mm 4 m/s 752 mm Hg 95%
10:00 -26°C° 0 mm 4 m/s 752 mm Hg 93%
11:00 -25°C° 0 mm 4 m/s 752 mm Hg 92%
12:00 -25°C° 0 mm 4 m/s 753 mm Hg 90%
13:00 -24°C° 0 mm 4 m/s 753 mm Hg 89%
14:00 -24°C° 0 mm 4 m/s 753 mm Hg 89%
15:00 -24°C° 0 mm 4 m/s 753 mm Hg 88%
16:00 -25°C° 0 mm 4 m/s 753 mm Hg 89%
17:00 -26°C° 0 mm 3 m/s 754 mm Hg 91%
18:00 -27°C° 0 mm 3 m/s 754 mm Hg 93%
19:00 -29°C° 0 mm 3 m/s 754 mm Hg 94%
20:00 -29°C° 0 mm 3 m/s 754 mm Hg 94%
21:00 -29°C° 0 mm 3 m/s 755 mm Hg 95%
22:00 -29°C° 0 mm 3 m/s 755 mm Hg 96%
23:00 -29°C° 0 mm 3 m/s 755 mm Hg 97%

11 Marzo, Giovedi

Tempo Temperatura Precipitazioni Vento Pressione Umidità
00:00 -29°C° 0 mm 3 m/s 754 mm Hg 99%
01:00 -29°C° 0 mm 3 m/s 755 mm Hg 99%
02:00 -30°C° 0 mm 3 m/s 755 mm Hg 99%
03:00 -30°C° 0 mm 3 m/s 755 mm Hg 99%
04:00 -30°C° 0 mm 4 m/s 755 mm Hg 99%
05:00 -30°C° 0 mm 4 m/s 755 mm Hg 99%
06:00 -30°C° 0 mm 4 m/s 755 mm Hg 99%
07:00 -29°C° 0 mm 4 m/s 755 mm Hg 98%
08:00 -27°C° 0 mm 5 m/s 755 mm Hg 96%
09:00 -26°C° 0 mm 5 m/s 755 mm Hg 95%
10:00 -24°C° 0 mm 5 m/s 755 mm Hg 94%
11:00 -21°C° 0 mm 5 m/s 756 mm Hg 93%
12:00 -19°C° 0 mm 5 m/s 756 mm Hg 92%
13:00 -18°C° 0 mm 5 m/s 756 mm Hg 91%
14:00 -17°C° 0 mm 5 m/s 756 mm Hg 91%
15:00 -15°C° 0 mm 5 m/s 756 mm Hg 91%
16:00 -17°C° 0 mm 5 m/s 756 mm Hg 92%
17:00 -18°C° 0 mm 4 m/s 757 mm Hg 94%
18:00 -19°C° 0 mm 4 m/s 757 mm Hg 95%
19:00 -20°C° 0 mm 4 m/s 757 mm Hg 95%
20:00 -20°C° 0 mm 4 m/s 757 mm Hg 96%
21:00 -22°C° 0 mm 4 m/s 758 mm Hg 96%
22:00 -22°C° 0 mm 3 m/s 758 mm Hg 95%
23:00 -23°C° 0 mm 3 m/s 758 mm Hg 95%

12 Marzo, Venerdi

Tempo Temperatura Precipitazioni Vento Pressione Umidità
00:00 -23°C° 0 mm 3 m/s 759 mm Hg 94%
01:00 -24°C° 0 mm 3 m/s 759 mm Hg 92%
02:00 -23°C° 0 mm 2 m/s 758 mm Hg 89%
03:00 -24°C° 0 mm 2 m/s 758 mm Hg 86%
04:00 -25°C° 0 mm 3 m/s 758 mm Hg 84%
05:00 -25°C° 0 mm 3 m/s 758 mm Hg 81%
06:00 -25°C° 0 mm 3 m/s 758 mm Hg 79%
07:00 -24°C° 0 mm 4 m/s 758 mm Hg 83%
08:00 -22°C° 0 mm 5 m/s 757 mm Hg 88%
09:00 -20°C° 0 mm 5 m/s 757 mm Hg 93%
10:00 -18°C° 0 mm 6 m/s 757 mm Hg 92%
11:00 -17°C° 0 mm 6 m/s 756 mm Hg 90%
12:00 -16°C° 0 mm 6 m/s 756 mm Hg 89%
13:00 -15°C° 0 mm 7 m/s 755 mm Hg 88%
14:00 -14°C° 0 mm 7 m/s 755 mm Hg 86%
15:00 -13°C° 0 mm 7 m/s 754 mm Hg 85%
16:00 -15°C° 0 mm 8 m/s 753 mm Hg 85%
17:00 -15°C° 0 mm 8 m/s 753 mm Hg 85%
18:00 -15°C° 0 mm 8 m/s 752 mm Hg 84%
19:00 -15°C° 0 mm 9 m/s 752 mm Hg 85%
20:00 -15°C° 0 mm 9 m/s 751 mm Hg 87%
21:00 -16°C° 0 mm 9 m/s 751 mm Hg 88%
22:00 -17°C° 0.4 mm 10 m/s 750 mm Hg 89%
23:00 -17°C° 0.4 mm 10 m/s 749 mm Hg 90%
Mostrare altro

Abbiamo bisogno del tuo consenso

Meteoprog e i nostri fornitori di servizi possono memorizzare e accedere a dati personali come cookie, identificatori di dispositivi o altre tecnologie simili sul tuo dispositivo e possono elaborare tali dati per personalizzare i contenuti e gli annunci, nonché fornire funzionalità dei social media e analizzarne il traffico.

  • Archiviare e/o accedere alle informazioni sul tuo dispositivo

    Cookie, identificatori di dispositivi o altre informazioni possono essere memorizzati o resi accessibili sul tuo dispositivo per le finalità sopra indicate.

  • Annunci e contenuti personalizzati, misurazione di annunci e contenuti, approfondimenti sul pubblico e sviluppo di prodotti

    Gli annunci e i contenuti possono essere personalizzati in base a un profilo. È possibile aggiungere più dati per personalizzare meglio annunci e contenuti. È possibile misurare il rendimento degli annunci e dei contenuti. È possibile ricavare informazioni sul pubblico che ha visto gli annunci e i contenuti. Tali dati possono essere utilizzati per sviluppare o migliorare l'esperienza, i sistemi e il software dell'utente.

Cliccando su “Accetto”, acconsenti all'uso di cookie, identificatori di dispositivo, web beacon o altre tecnologie simili. Puoi modificare le impostazioni nel browser del tuo dispositivo.

Per determinati scopi, è possibile fare affidamento su interessi legali, piuttosto che sul consenso. Puoi approfondire questo argomento consultando la nostra Informativa sulla privacy e sui cookie.